TAP35X EDDF-LPPT

Flight info

Callsign TAP35X
Flight time N/A
Altitude 33000
Route SOBRA1F SOBRA Y180 DIK UN857 TOLVU DCT RAPOR DCT GIMER DCT ESTOC UT300 PON UN872 ERIGA UZ218 FUJTI DCT ATLEN DCT ABUPI DCT XAMAX
Aircraft A321/M-SDE3FGHIRWY/LB1

Departure

Time N/A
Airport Frankfurt Main Airport (EDDF)

Arrival

Time 2026-05-07 13:57
Airport Lisbon Humberto Delgado Airport (LPPT)
Time Latitude Longitude Altitude Speed Heading
2026-05-07 13:19 40.61530 -8.10340 32856 ft 424 kts 218°
2026-05-07 13:20 40.56415 -8.14160 32876 ft 422 kts 217°
2026-05-07 13:20 40.51337 -8.17938 32891 ft 422 kts 218°
2026-05-07 13:21 40.46235 -8.21740 32892 ft 421 kts 217°
2026-05-07 13:21 40.41147 -8.25534 32888 ft 421 kts 218°
2026-05-07 13:22 40.36052 -8.29315 32874 ft 420 kts 218°
2026-05-07 13:22 40.30929 -8.33127 32532 ft 436 kts 217°
2026-05-07 13:23 40.28285 -8.35095 32248 ft 438 kts 216°
2026-05-07 13:23 40.25637 -8.37051 31985 ft 436 kts 216°
2026-05-07 13:23 40.22994 -8.38992 31731 ft 435 kts 216°
2026-05-07 13:23 40.20360 -8.40924 31472 ft 433 kts 216°
2026-05-07 13:24 40.17735 -8.42855 31226 ft 432 kts 216°
2026-05-07 13:24 40.15117 -8.44780 30963 ft 431 kts 216°
2026-05-07 13:24 40.12507 -8.46699 30718 ft 430 kts 216°
2026-05-07 13:24 40.09952 -8.48577 30334 ft 425 kts 216°
2026-05-07 13:25 40.07387 -8.50461 29757 ft 422 kts 215°
2026-05-07 13:25 40.04715 -8.52054 29201 ft 424 kts 205°
2026-05-07 13:25 40.01850 -8.53008 28677 ft 427 kts 194°
2026-05-07 13:25 39.98859 -8.53260 28288 ft 437 kts 183°
2026-05-07 13:26 39.95806 -8.53015 27840 ft 441 kts 181°
2026-05-07 13:26 39.92752 -8.52751 27386 ft 438 kts 181°
2026-05-07 13:26 39.89723 -8.52493 26969 ft 435 kts 181°
2026-05-07 13:26 39.86752 -8.52241 26535 ft 432 kts 181°
2026-05-07 13:27 39.83759 -8.51991 26102 ft 430 kts 181°
2026-05-07 13:27 39.80807 -8.51747 25815 ft 418 kts 181°
2026-05-07 13:27 39.77974 -8.51729 25691 ft 396 kts 192°
2026-05-07 13:27 39.75364 -8.52552 25468 ft 386 kts 208°
2026-05-07 13:28 39.73001 -8.54262 25236 ft 393 kts 219°
2026-05-07 13:28 39.70735 -8.56298 25055 ft 398 kts 220°
2026-05-07 13:28 39.68466 -8.58357 24936 ft 398 kts 220°
2026-05-07 13:28 39.66194 -8.60423 24816 ft 398 kts 220°
2026-05-07 13:29 39.63958 -8.62456 24699 ft 398 kts 220°
2026-05-07 13:29 39.61690 -8.64513 24584 ft 397 kts 220°
2026-05-07 13:29 39.59424 -8.66566 24463 ft 397 kts 219°
2026-05-07 13:29 39.57159 -8.68614 24348 ft 397 kts 219°
2026-05-07 13:30 39.54893 -8.70657 24227 ft 397 kts 219°
2026-05-07 13:30 39.52626 -8.72696 24099 ft 395 kts 219°
2026-05-07 13:30 39.50376 -8.74720 23981 ft 394 kts 219°
2026-05-07 13:30 39.48160 -8.76714 23867 ft 392 kts 219°
2026-05-07 13:31 39.45925 -8.78726 23743 ft 390 kts 218°
2026-05-07 13:31 39.43698 -8.80728 23638 ft 389 kts 218°
2026-05-07 13:31 39.41476 -8.82723 23484 ft 389 kts 218°
2026-05-07 13:31 39.39261 -8.84714 23240 ft 387 kts 218°
2026-05-07 13:32 39.37056 -8.86697 22963 ft 386 kts 218°
2026-05-07 13:32 39.34852 -8.88670 22687 ft 385 kts 218°
2026-05-07 13:32 39.32656 -8.90634 22420 ft 383 kts 218°
2026-05-07 13:32 39.30465 -8.92592 22156 ft 382 kts 218°
2026-05-07 13:33 39.28316 -8.94514 21909 ft 380 kts 218°
2026-05-07 13:33 39.26175 -8.96423 21573 ft 369 kts 218°
2026-05-07 13:33 39.24080 -8.98289 21158 ft 362 kts 218°
2026-05-07 13:33 39.22026 -9.00122 20735 ft 356 kts 218°
2026-05-07 13:34 39.20008 -9.01924 20343 ft 350 kts 218°
2026-05-07 13:34 39.16034 -9.05471 19663 ft 358 kts 217°
2026-05-07 13:34 39.13967 -9.07318 19230 ft 364 kts 217°
2026-05-07 13:35 39.11917 -9.09147 18810 ft 364 kts 217°
2026-05-07 13:35 39.09843 -9.10992 18384 ft 361 kts 217°
2026-05-07 13:35 39.07781 -9.12819 17907 ft 359 kts 216°
2026-05-07 13:35 39.05731 -9.14633 17460 ft 356 kts 217°
2026-05-07 13:36 39.03695 -9.16433 17013 ft 354 kts 216°
2026-05-07 13:36 39.01675 -9.18221 16578 ft 352 kts 216°
2026-05-07 13:36 38.99668 -9.19993 16143 ft 349 kts 216°
2026-05-07 13:36 38.97679 -9.21751 15707 ft 345 kts 215°
2026-05-07 13:37 38.95711 -9.23490 15279 ft 343 kts 216°
2026-05-07 13:37 38.93775 -9.25203 14858 ft 341 kts 216°
2026-05-07 13:37 38.91828 -9.26925 14437 ft 338 kts 215°
2026-05-07 13:37 38.89896 -9.28633 13984 ft 337 kts 215°
2026-05-07 13:38 38.87974 -9.30332 13544 ft 336 kts 214°
2026-05-07 13:38 38.86053 -9.32025 13095 ft 333 kts 215°
2026-05-07 13:38 38.84156 -9.33695 12678 ft 329 kts 214°
2026-05-07 13:38 38.82274 -9.35348 12239 ft 327 kts 214°
2026-05-07 13:39 38.80406 -9.36987 11798 ft 324 kts 214°
2026-05-07 13:39 38.78555 -9.38612 11356 ft 321 kts 214°
2026-05-07 13:39 38.76747 -9.40198 10932 ft 317 kts 214°
2026-05-07 13:39 38.74924 -9.41755 10525 ft 310 kts 208°
2026-05-07 13:40 38.72989 -9.42680 10147 ft 289 kts 190°
2026-05-07 13:40 38.71019 -9.42734 9433 ft 282 kts 171°
2026-05-07 13:40 38.69187 -9.41947 8637 ft 278 kts 152°
2026-05-07 13:40 38.67576 -9.40603 7798 ft 275 kts 147°
2026-05-07 13:41 38.65998 -9.39240 6988 ft 273 kts 146°
2026-05-07 13:41 38.64439 -9.37899 6281 ft 267 kts 146°
2026-05-07 13:41 38.62936 -9.36613 5685 ft 257 kts 146°
2026-05-07 13:41 38.61511 -9.35402 5470 ft 234 kts 146°
2026-05-07 13:42 38.60226 -9.34311 5378 ft 209 kts 146°
2026-05-07 13:42 38.59066 -9.33323 5297 ft 195 kts 146°
2026-05-07 13:42 38.57981 -9.32317 5205 ft 192 kts 134°
2026-05-07 13:42 38.57358 -9.30833 5116 ft 193 kts 102°
2026-05-07 13:43 38.57462 -9.29140 4852 ft 194 kts 70°
2026-05-07 13:43 38.57983 -9.27555 4568 ft 193 kts 68°
2026-05-07 13:43 38.58501 -9.25970 4295 ft 193 kts 67°
2026-05-07 13:43 38.59087 -9.24430 4081 ft 193 kts 54°
2026-05-07 13:44 38.60045 -9.23285 3860 ft 192 kts 30°
2026-05-07 13:44 38.61260 -9.22588 3615 ft 191 kts 21°
2026-05-07 13:44 38.62486 -9.21939 3370 ft 190 kts 21°
2026-05-07 13:44 38.63704 -9.21291 3129 ft 189 kts 20°
2026-05-07 13:45 38.64919 -9.20645 2860 ft 189 kts 20°
2026-05-07 13:45 38.66133 -9.19999 2600 ft 189 kts 20°
2026-05-07 13:45 38.67340 -9.19356 2358 ft 187 kts 20°
2026-05-07 13:45 38.68537 -9.18717 2123 ft 182 kts 19°
2026-05-07 13:46 38.69660 -9.18115 1873 ft 168 kts 15°
2026-05-07 13:46 38.70698 -9.17562 1650 ft 160 kts 15°
2026-05-07 13:46 38.71710 -9.17023 1439 ft 155 kts 17°
2026-05-07 13:46 38.72708 -9.16491 1228 ft 155 kts 17°
2026-05-07 13:47 38.73699 -9.15961 1010 ft 154 kts 17°
2026-05-07 13:47 38.74692 -9.15424 770 ft 156 kts 17°
2026-05-07 13:47 38.75708 -9.14890 630 ft 157 kts 21°
2026-05-07 13:47 38.76706 -9.14356 376 ft 155 kts 19°
2026-05-07 13:48 38.77650 -9.13847 384 ft 144 kts 20°
2026-05-07 13:48 38.78688 -9.13274 909 ft 173 kts 21°
2026-05-07 13:48 38.79785 -9.12649 1738 ft 178 kts 20°
2026-05-07 13:48 38.80979 -9.11964 1972 ft 198 kts 21°
2026-05-07 13:49 38.82308 -9.11192 2168 ft 221 kts 21°
2026-05-07 13:49 38.83759 -9.10430 2746 ft 225 kts
2026-05-07 13:49 38.85311 -9.10508 3349 ft 230 kts 338°
2026-05-07 13:49 38.86635 -9.11672 3867 ft 237 kts 308°
2026-05-07 13:50 38.87334 -9.13559 3980 ft 237 kts 278°
2026-05-07 13:50 38.87428 -9.15670 4002 ft 237 kts 266°
2026-05-07 13:50 38.86933 -9.17673 4006 ft 239 kts 235°
2026-05-07 13:50 38.85708 -9.19039 4008 ft 241 kts 207°
2026-05-07 13:51 38.84147 -9.19833 4008 ft 242 kts 199°
2026-05-07 13:51 38.82572 -9.20594 4008 ft 242 kts 207°
2026-05-07 13:51 38.81068 -9.21550 4009 ft 242 kts 208°
2026-05-07 13:51 38.79883 -9.22345 4008 ft 242 kts 208°
2026-05-07 13:52 38.79166 -9.22857 4011 ft 241 kts 210°
2026-05-07 13:52 38.77707 -9.23875 3967 ft 232 kts 209°
2026-05-07 13:52 38.76326 -9.24819 3775 ft 221 kts 208°
2026-05-07 13:52 38.74988 -9.25701 3432 ft 218 kts 208°
2026-05-07 13:53 38.73642 -9.26588 3077 ft 217 kts 210°
2026-05-07 13:53 38.72302 -9.27450 2715 ft 216 kts 210°
2026-05-07 13:53 38.70898 -9.28104 2393 ft 217 kts 188°
2026-05-07 13:53 38.69427 -9.27720 2050 ft 220 kts 151°
2026-05-07 13:54 38.68436 -9.26361 2008 ft 202 kts 117°
2026-05-07 13:54 38.67914 -9.24716 2007 ft 194 kts 110°
2026-05-07 13:54 38.67477 -9.23087 2006 ft 192 kts 105°
2026-05-07 13:54 38.67404 -9.21402 2013 ft 191 kts 81°
2026-05-07 13:55 38.67857 -9.19864 2005 ft 187 kts 53°
2026-05-07 13:55 38.68752 -9.18684 1982 ft 174 kts 29°
2026-05-07 13:55 38.69767 -9.18055 1815 ft 158 kts 16°
2026-05-07 13:55 38.70783 -9.17521 1626 ft 156 kts 18°
2026-05-07 13:56 38.71780 -9.16988 1404 ft 155 kts 18°
2026-05-07 13:56 38.72774 -9.16459 1236 ft 154 kts 17°
2026-05-07 13:56 38.73763 -9.15929 1006 ft 155 kts 17°
2026-05-07 13:56 38.74754 -9.15393 781 ft 157 kts 20°
2026-05-07 13:57 38.75759 -9.14863 603 ft 154 kts 21°
2026-05-07 13:57 38.76751 -9.14332 375 ft 154 kts 20°
2026-05-07 13:57 38.77645 -9.13855 368 ft 115 kts 23°
2026-05-07 13:57 38.78174 -9.13564 369 ft 41 kts 24°
2026-05-07 13:58 38.78333 -9.13406 364 ft 20 kts 46°
2026-05-07 13:58 38.78361 -9.13279 362 ft 12 kts 127°
2026-05-07 13:58 38.78282 -9.13284 363 ft 12 kts 201°
2026-05-07 13:58 38.78204 -9.13325 360 ft 12 kts 202°
2026-05-07 13:59 38.78126 -9.13367 364 ft 12 kts 202°
2026-05-07 13:59 38.78049 -9.13408 361 ft 12 kts 202°
2026-05-07 13:59 38.77962 -9.13454 360 ft 15 kts 202°
2026-05-07 13:59 38.77864 -9.13506 362 ft 15 kts 199°
2026-05-07 14:00 38.77753 -9.13494 351 ft 18 kts 169°
2026-05-07 14:00 38.77623 -9.13458 346 ft 20 kts 168°
2026-05-07 14:00 38.77479 -9.13420 343 ft 22 kts 168°
2026-05-07 14:00 38.77331 -9.13379 344 ft 22 kts 168°
2026-05-07 14:01 38.77182 -9.13341 341 ft 22 kts 168°
2026-05-07 14:01 38.77054 -9.13305 341 ft 12 kts 168°
2026-05-07 14:01 38.77018 -9.13252 337 ft 9 kts 88°
2026-05-07 14:01 38.77011 -9.13180 335 ft 9 kts 144°
2026-05-07 14:02 38.76955 -9.13159 339 ft 8 kts 167°
2026-05-07 14:02 38.76902 -9.13145 339 ft 7 kts 168°
2026-05-07 14:02 38.76879 -9.13119 335 ft 5 kts 82°
2026-05-07 14:02 38.76888 -9.13071 337 ft 3 kts 77°
2026-05-07 14:03 38.76890 -9.13061 336 ft 1 kts 78°
2026-05-07 14:03 38.76890 -9.13057 336 ft 0 kts 78°